Athens McMinn County Airport, TN

9:42 PM EDT on March 29, 2017 (GMT -0400)
McMinn County

Weather History for KMMI - February, 2014

Change the Weather History Date:

Saturday, February 1, 2014

  Actual Average Record
Temperature  
Mean Temperature 37 °F -  
Max Temperature 55 °F 50 °F 66 °F (2016)
Min Temperature 19 °F 25 °F 19 °F (2014)
Degree Days  
Heating Degree Days 28    
Moisture  
Dew Point 27 °F    
Average Humidity 73    
Maximum Humidity 100    
Minimum Humidity 26    
Precipitation  
Precipitation 0.00 in - - ()
Sea Level Pressure  
Sea Level Pressure 30.12 in    
Wind  
Wind Speed 2 mph (SW)    
Max Wind Speed 13 mph    
Max Gust Speed -    
Visibility 10 miles    
Events      
Averages and records for this station are not official NWS values.
T = Trace of Precipitation, MM = Missing Value Source: NWS Daily Summary

Daily Weather History Graph

Daily Weather History Graph

Search for Another Location

Airport or City:

Trip Planner

Search our weather history database for the weather conditions in past years. The results will help you decide how hot, cold, wet, or windy it might be!

Date:

Astronomy

Feb. 01, 2014 Rise Set
Actual Time 7:37 AM EST 6:06 PM EST
Civil Twilight 7:11 AM EST 6:33 PM EST
Nautical Twilight 6:40 AM EST 7:03 PM EST
Astronomical Twilight 6:10 AM EST 7:33 PM EST
Moon 8:32 AM EST (2/1) 8:33 PM EST (2/1)
Length of Visible Light 11h 22m
Length of Day
10h 28m
Waxing Crescent, 5% of the Moon is Illuminated
Feb 1
Waxing Crescent
Feb 6
First Quarter
Feb 14
Full
Feb 22
Last Quarter
Mar 1
New

Hourly Weather History & Observations

Time (EST) Temp. Windchill Dew Point Humidity Pressure Visibility Wind Dir Wind Speed Gust Speed Precip Events Conditions
12:35 AM 24.8 °F - 17.6 °F 74% 30.15 in 10.0 mi Calm Calm - N/A   Clear
12:55 AM 24.8 °F - 17.6 °F 74% 30.15 in 10.0 mi Calm Calm - N/A   Clear
1:15 AM 24.8 °F - 19.4 °F 80% 30.14 in 10.0 mi Calm Calm - N/A   Clear
1:35 AM 23.0 °F - 17.6 °F 80% 30.15 in 10.0 mi Calm Calm - N/A   Clear
1:55 AM 23.0 °F - 17.6 °F 80% 30.15 in 10.0 mi Calm Calm - N/A   Clear
2:15 AM 21.2 °F - 17.6 °F 86% 30.14 in 10.0 mi Calm Calm - N/A   Clear
2:35 AM 21.2 °F - 17.6 °F 86% 30.14 in 10.0 mi Calm Calm - N/A   Clear
2:55 AM 21.2 °F - 17.6 °F 86% 30.14 in 10.0 mi Calm Calm - N/A   Clear
3:15 AM 21.2 °F - 17.6 °F 86% 30.14 in 10.0 mi Calm Calm - N/A   Clear
3:35 AM 21.2 °F - 17.6 °F 86% 30.14 in 10.0 mi Calm Calm - N/A   Clear
3:55 AM 21.2 °F - 17.6 °F 86% 30.14 in 10.0 mi Calm Calm - N/A   Clear
4:15 AM 21.2 °F - 17.6 °F 86% 30.15 in 10.0 mi Calm Calm - N/A   Clear
4:35 AM 21.2 °F - 17.6 °F 86% 30.15 in 10.0 mi Calm Calm - N/A   Clear
4:55 AM 21.2 °F - 17.6 °F 86% 30.16 in 10.0 mi Calm Calm - N/A   Clear
5:15 AM 19.4 °F - 17.6 °F 93% 30.16 in 10.0 mi Calm Calm - N/A   Clear
5:35 AM 19.4 °F - 17.6 °F 93% 30.16 in 10.0 mi Calm Calm - N/A   Clear
5:55 AM 19.4 °F - 17.6 °F 93% 30.16 in 10.0 mi Calm Calm - N/A   Clear
6:15 AM 19.4 °F - 17.6 °F 93% 30.16 in 10.0 mi Calm Calm - N/A   Clear
6:35 AM 19.4 °F - 17.6 °F 93% 30.16 in 10.0 mi Calm Calm - N/A   Clear
6:55 AM 19.4 °F - 17.6 °F 93% 30.16 in 10.0 mi Calm Calm - N/A   Clear
7:15 AM 19.4 °F - 17.6 °F 93% 30.17 in 10.0 mi Calm Calm - N/A   Clear
7:35 AM 19.4 °F - 17.6 °F 93% 30.17 in 10.0 mi Calm Calm - N/A   Clear
7:55 AM 19.4 °F - 17.6 °F 93% 30.16 in 10.0 mi Calm Calm - N/A   Clear
8:15 AM 23.0 °F - 19.4 °F 86% 30.17 in 10.0 mi Calm Calm - N/A   Clear
8:35 AM 24.8 °F - 21.2 °F 86% 30.17 in 10.0 mi Calm Calm - N/A   Clear
8:55 AM 26.6 °F - 21.2 °F 80% 30.17 in 10.0 mi Calm Calm - N/A   Clear
9:15 AM 28.4 °F - 23.0 °F 80% 30.17 in 10.0 mi Calm Calm - N/A   Clear
9:35 AM 32.0 °F - 23.0 °F 69% 30.17 in 10.0 mi Calm Calm - N/A   Clear
9:55 AM 35.6 °F - 24.8 °F 65% 30.17 in 10.0 mi Calm Calm - N/A   Clear
10:15 AM 39.2 °F - 24.8 °F 56% 30.17 in 10.0 mi Calm Calm - N/A   Clear
10:35 AM 42.8 °F - 24.8 °F 49% 30.17 in 10.0 mi Calm Calm - N/A   Clear
10:55 AM 44.6 °F 43.1 °F 21.2 °F 39% 30.16 in 10.0 mi South 3.5 mph - N/A   Partly Cloudy
11:15 AM 46.4 °F 45.2 °F 19.4 °F 34% 30.15 in 10.0 mi SW 3.5 mph - N/A   Mostly Cloudy
11:35 AM 46.4 °F 43.5 °F 21.2 °F 37% 30.14 in 10.0 mi SW 5.8 mph - N/A   Overcast
11:55 AM 48.2 °F - 24.8 °F 40% 30.14 in 10.0 mi SW 4.6 mph - N/A   Overcast
12:15 PM 48.2 °F - 19.4 °F 32% 30.13 in 10.0 mi West 4.6 mph - N/A   Overcast
12:35 PM 50.0 °F - 17.6 °F 28% 30.12 in 10.0 mi SW 9.2 mph - N/A   Overcast
12:55 PM 53.6 °F - 19.4 °F 26% 30.10 in 10.0 mi SW 8.1 mph - N/A   Overcast
1:15 PM 51.8 °F - 21.2 °F 30% 30.10 in 10.0 mi WSW 10.4 mph - N/A   Overcast
1:35 PM 51.8 °F - 21.2 °F 30% 30.09 in 10.0 mi WSW 8.1 mph - N/A   Overcast
1:55 PM 53.6 °F - 23.0 °F 30% 30.09 in 10.0 mi SW 11.5 mph - N/A   Overcast
2:15 PM 53.6 °F - 24.8 °F 33% 30.09 in 10.0 mi SW 9.2 mph - N/A   Overcast
2:35 PM 53.6 °F - 26.6 °F 35% 30.08 in 10.0 mi SW 9.2 mph - N/A   Overcast
2:55 PM 53.6 °F - 28.4 °F 38% 30.08 in 10.0 mi SW 12.7 mph - N/A   Mostly Cloudy
3:15 PM 55.4 °F - 28.4 °F 36% 30.07 in 10.0 mi SW 10.4 mph - N/A   Mostly Cloudy
3:35 PM 55.4 °F - 32.0 °F 41% 30.07 in 10.0 mi SW 11.5 mph - N/A   Partly Cloudy
3:55 PM 55.4 °F - 37.4 °F 51% 30.07 in 10.0 mi SW 12.7 mph - N/A   Clear
4:15 PM 55.4 °F - 39.2 °F 54% 30.07 in 10.0 mi SW 11.5 mph - N/A   Clear
4:35 PM 55.4 °F - 42.8 °F 63% 30.07 in 10.0 mi SW 12.7 mph - N/A   Clear
4:55 PM 53.6 °F - 42.8 °F 67% 30.08 in 10.0 mi WSW 11.5 mph - N/A   Clear
5:15 PM 53.6 °F - 42.8 °F 67% 30.08 in 10.0 mi WSW 11.5 mph - N/A   Clear
5:35 PM 51.8 °F - 42.8 °F 71% 30.09 in 10.0 mi SW 10.4 mph - N/A   Clear
5:55 PM 50.0 °F - 42.8 °F 76% 30.09 in 10.0 mi WSW 9.2 mph - N/A   Clear
6:15 PM 50.0 °F - 42.8 °F 76% 30.09 in 10.0 mi WSW 8.1 mph - N/A   Clear
6:35 PM 48.2 °F - 41.0 °F 76% 30.09 in 10.0 mi Variable 3.5 mph - N/A   Clear
6:55 PM 48.2 °F - 42.8 °F 82% 30.10 in 10.0 mi Calm Calm - N/A   Clear
7:15 PM 46.4 °F - 41.0 °F 81% 30.11 in 10.0 mi Calm Calm - N/A   Clear
7:35 PM 44.6 °F - 39.2 °F 81% 30.11 in 10.0 mi Calm Calm - N/A   Clear
7:55 PM 42.8 °F - 39.2 °F 87% 30.12 in 10.0 mi Calm Calm - N/A   Clear
8:15 PM 39.2 °F - 37.4 °F 93% 30.11 in 10.0 mi Calm Calm - N/A   Clear
8:35 PM 37.4 °F - 35.6 °F 93% 30.10 in 10.0 mi Calm Calm - N/A   Clear
8:55 PM 37.4 °F - 35.6 °F 93% 30.10 in 10.0 mi Calm Calm - N/A   Clear
9:15 PM 35.6 °F - 35.6 °F 100% 30.10 in 10.0 mi Calm Calm - N/A   Clear
9:35 PM 35.6 °F - 35.6 °F 100% 30.10 in 10.0 mi Calm Calm - N/A   Clear
9:55 PM 35.6 °F - 35.6 °F 100% 30.10 in 10.0 mi Calm Calm - N/A   Clear
10:15 PM 33.8 °F - 33.8 °F 100% 30.09 in 10.0 mi Calm Calm - N/A   Clear
10:35 PM 33.8 °F - 33.8 °F 100% 30.09 in 10.0 mi Calm Calm - N/A   Clear
10:55 PM 33.8 °F - 33.8 °F 100% 30.09 in 10.0 mi Calm Calm - N/A   Clear
11:15 PM 32.0 °F - 32.0 °F 100% 30.09 in 9.0 mi Calm Calm - N/A   Clear
11:35 PM 30.2 °F - 30.2 °F 100% 30.09 in 10.0 mi Calm Calm - N/A   Clear
11:55 PM 30.2 °F - 30.2 °F 100% 30.09 in 10.0 mi Calm Calm - N/A   Clear